STARLINK-3841, 52369

Orbit data source: Space-Track

STARLINK-3841, 52369 is a payload satellite owned by SpaceX/Seattle (US) in LEO that was launched on Fri, 29 Apr 2022 UTC via an FALCON 9 launch vehicle from the Air Force Eastern Test Range (AFETR). Payload-class satellites include a variety of spacecraft equipped with specific instruments for various scientific and technological missions. These include communications satellites like Starlink; space stations such as the ISS; scientific satellites like the Hubble; Earth observation satellites from companies like Planet Labs, Umbra, and HawkEye 360; GPS; miniature CubeSats for education and research; and military/defense satellites.

Loading next visibility...
Identifier
52369, 2022-045AQ
Orbit
LEO
Country
Flag of USUS
Related business
Manufacturer
SpaceX/Seattle
Mission
Operational Commercial Communications
Bus & Motor
STARLINK, Unknown motor
Mass
297 kg wet, ~275 kg dry
Launch date (UTC)
2022-04-29 (4 years ago)
Launch vehicle
FALCON 9
Launch site
Air Force Eastern Test Range (AFETR)
Object type
Payload
Rocket body
Debris
Shape & HBR
Box + 1 Pan, 10.1 m
Radar Cross Section
11.087 m², Large (>1 m²)

Expand to show TLE details & history
Last TLE update: 6 hours ago

TLE from 6 hours ago
0 STARLINK-3841
1 52369U 22045AQ  26119.91552477 -.00002134  00000-0 -11612-3 0  9993
2 52369  53.2179 319.1599 0001396  94.9441 265.1710 15.08814985223650
Epoch: 2026-04-29T21:58Z
TLE epoch observation values (Epoch: 2026-04-29T21:58:21.340Z)
Latitude
-0.00005°
Longitude
131.70131°
Altitude
540.799 km
Speed
7.593 km/s
True Right ascension
21h 16m 38s
True Declination
0° 00' 00"
Sunlit
Object was in daylight at epoch
Visualization orbit readout
Latitude
Unknown
Longitude
Unknown
Altitude
Unknown
Speed
Unknown
Apparent Right ascension
Unknown
Apparent Declination
Unknown
Sunlit
N/A
Visualization observer readout
Local Sidereal Time
11:14:28
Azimuth
Unknown
Elevation
Unknown
Doppler factor
Unknown
Orbital elements
Apogee altitude
541.03 km
Perigee altitude
539.099 km
Semi-major axis
6,918.202 km
Eccentricity
0.00014
Inclination
53.2179°
RAAN
319.1599°
Arg. of periapsis
94.9441°
True anomaly
265.15506°
Mean anomaly
265.171°
Eccentric anomaly
265.16303°
Mean motion
3.77184 °/min
Orbital period
95.44 mins
BSTAR
-0.00011612
Loading maneuver chart data...
Computing Atmospheric mass density...

Documentation

Showing up to 5 results
|